| time (UTC) | temp F | wind direction | speed MPH | gust MPH | rain 1hr in | rain 24hr in | rain mn in | humidity % | barometer mb |
| 20260504130742 | 64 | 109 | 4.0 | 6.0 | 0.00 | 0.00 | 0.00 | 62 | 1013.7 |
| 20260504130238 | 63 | 338 | 2.0 | 4.0 | 0.00 | 0.00 | 0.00 | 62 | 1013.7 |
| 20260504120202 | 60 | 136 | 3.0 | 6.0 | 0.00 | 0.00 | 0.00 | 63 | 1013.3 |
| 20260504110629 | 60 | 298 | 0.0 | 3.0 | 0.00 | 0.00 | 0.00 | 62 | 1013.0 |
| 20260504110125 | 60 | 105 | 0.0 | 2.0 | 0.00 | 0.00 | 0.00 | 62 | 1012.8 |
| 20260504100551 | 60 | 144 | 2.0 | 2.0 | 0.00 | 0.00 | 0.00 | 60 | 1013.0 |
| 20260504081945 | 61 | 116 | 1.0 | 4.0 | 0.00 | 0.00 | 0.00 | 54 | 1013.0 |
| 20260504081442 | 61 | 235 | 1.0 | 2.0 | 0.00 | 0.00 | 0.00 | 54 | 1012.9 |
| 20260504080938 | 61 | 225 | 0.0 | 4.0 | 0.00 | 0.00 | 0.00 | 53 | 1012.9 |
| 20260504080435 | 61 | 108 | 4.0 | 6.0 | 0.00 | 0.00 | 0.00 | 53 | 1013.1 |
| 20260504070402 | 62 | 89 | 0.0 | 6.0 | 0.00 | 0.00 | 0.00 | 51 | 1013.4 |
| 20260504050749 | 62 | 74 | 0.0 | 4.0 | 0.00 | 0.00 | 0.00 | 46 | 1014.5 |
| 20260504050247 | 62 | 121 | 0.0 | 1.0 | 0.00 | 0.00 | 0.00 | 46 | 1014.6 |
| 20260504045745 | 62 | 242 | 5.0 | 6.0 | 0.00 | 0.00 | 0.00 | 46 | 1014.4 |
| 20260504045245 | 62 | 133 | 1.0 | 3.0 | 0.00 | 0.00 | 0.00 | 46 | 1014.5 |
| 20260504044743 | 62 | 116 | 1.0 | 2.0 | 0.00 | 0.00 | 0.00 | 46 | 1014.4 |
| 20260504044240 | 62 | 194 | 0.0 | 6.0 | 0.00 | 0.00 | 0.00 | 46 | 1014.7 |
| 20260504043737 | 62 | 20 | 1.0 | 6.0 | 0.00 | 0.00 | 0.00 | 46 | 1014.7 |
| 20260504043234 | 62 | 118 | 1.0 | 3.0 | 0.00 | 0.00 | 0.00 | 46 | 1014.6 |
| 20260504042732 | 62 | 180 | 0.0 | 2.0 | 0.00 | 0.00 | 0.00 | 47 | 1014.6 |
| 20260504042228 | 61 | 102 | 0.0 | 1.0 | 0.00 | 0.00 | 0.00 | 47 | 1014.9 |
| 20260504041724 | 61 | 135 | 3.0 | 4.0 | 0.00 | 0.00 | 0.00 | 47 | 1014.8 |
| 20260504041220 | 61 | 151 | 1.0 | 2.0 | 0.00 | 0.00 | 0.00 | 47 | 1014.8 |
| 20260504040716 | 61 | 160 | 0.0 | 2.0 | 0.00 | 0.00 | 0.00 | 47 | 1014.7 |
| 20260504040214 | 61 | 137 | 0.0 | 2.0 | 0.00 | 0.00 | 0.00 | 47 | 1015.2 |
| 20260504035710 | 61 | 126 | 0.0 | 3.0 | 0.00 | 0.00 | 0.00 | 47 | 1014.9 |
| 20260504035208 | 61 | 139 | 0.0 | 2.0 | 0.00 | 0.00 | 0.00 | 47 | 1015.0 |
| 20260504034705 | 61 | 160 | 1.0 | 2.0 | 0.00 | 0.00 | 0.00 | 47 | 1015.1 |
| 20260504034202 | 61 | 132 | 0.0 | 1.0 | 0.00 | 0.00 | 0.00 | 46 | 1015.0 |
| 20260504033659 | 61 | 127 | 1.0 | 1.0 | 0.00 | 0.00 | 0.00 | 46 | 1015.2 |
| 20260504033156 | 62 | 128 | 0.0 | 2.0 | 0.00 | 0.00 | 0.00 | 46 | 1015.3 |
| 20260504032653 | 62 | 132 | 0.0 | 1.0 | 0.00 | 0.00 | 0.00 | 46 | 1015.1 |
| 20260504032150 | 62 | 133 | 2.0 | 2.0 | 0.00 | 0.00 | 0.00 | 45 | 1015.2 |
| 20260504031647 | 62 | 155 | 1.0 | 2.0 | 0.00 | 0.00 | 0.00 | 45 | 1015.2 |
| 20260504031143 | 62 | 134 | 1.0 | 2.0 | 0.00 | 0.00 | 0.00 | 45 | 1015.2 |
| 20260504030640 | 62 | 176 | 2.0 | 2.0 | 0.00 | 0.00 | 0.00 | 44 | 1015.3 |
| 20260504030137 | 63 | 133 | 0.0 | 1.0 | 0.00 | 0.00 | 0.00 | 45 | 1015.3 |
| 20260504025634 | 63 | 137 | 2.0 | 3.0 | 0.00 | 0.00 | 0.00 | 45 | 1015.4 |
| 20260504025130 | 62 | 117 | 1.0 | 2.0 | 0.00 | 0.00 | 0.00 | 44 | 1015.3 |
| 20260504024628 | 63 | 143 | 0.0 | 2.0 | 0.00 | 0.00 | 0.00 | 44 | 1015.3 |
| 20260504024125 | 63 | 20 | 1.0 | 2.0 | 0.00 | 0.00 | 0.00 | 44 | 1015.0 |
| 20260504023621 | 63 | 65 | 0.0 | 1.0 | 0.00 | 0.00 | 0.00 | 43 | 1015.2 |
| 20260504023117 | 63 | 122 | 1.0 | 2.0 | 0.00 | 0.00 | 0.00 | 43 | 1015.1 |
| 20260504022614 | 63 | 211 | 2.0 | 2.0 | 0.00 | 0.00 | 0.00 | 42 | 1015.3 |
| 20260504022110 | 63 | 185 | 1.0 | 2.0 | 0.00 | 0.00 | 0.00 | 42 | 1015.2 |
| 20260504021608 | 63 | 123 | 0.0 | 1.0 | 0.00 | 0.00 | 0.00 | 42 | 1014.9 |
| 20260504021104 | 63 | 171 | 2.0 | 3.0 | 0.00 | 0.00 | 0.00 | 43 | 1015.0 |
| 20260504020601 | 63 | 166 | 1.0 | 2.0 | 0.00 | 0.00 | 0.00 | 43 | 1014.8 |
| 20260504020057 | 63 | 117 | 0.0 | 2.0 | 0.00 | 0.00 | 0.00 | 42 | 1015.1 |
| 20260504015554 | 64 | 154 | 1.0 | 3.0 | 0.00 | 0.00 | 0.00 | 42 | 1014.8 |
| 20260504015050 | 64 | 139 | 2.0 | 3.0 | 0.00 | 0.00 | 0.00 | 41 | 1014.9 |
| 20260504014546 | 64 | 139 | 1.0 | 3.0 | 0.00 | 0.00 | 0.00 | 41 | 1014.7 |
| 20260504014044 | 64 | 202 | 2.0 | 2.0 | 0.00 | 0.00 | 0.00 | 41 | 1014.6 |
| 20260504013541 | 64 | 128 | 1.0 | 1.0 | 0.00 | 0.00 | 0.00 | 41 | 1014.9 |
| 20260504013038 | 64 | 135 | 1.0 | 1.0 | 0.00 | 0.00 | 0.00 | 41 | 1014.7 |
| 20260504012535 | 64 | 134 | 1.0 | 3.0 | 0.00 | 0.00 | 0.00 | 40 | 1014.7 |
| 20260504012033 | 65 | 147 | 2.0 | 2.0 | 0.00 | 0.00 | 0.00 | 40 | 1014.6 |
| 20260504011530 | 65 | 136 | 5.0 | 6.0 | 0.00 | 0.00 | 0.00 | 40 | 1014.5 |
| 20260504011026 | 65 | 153 | 1.0 | 4.0 | 0.00 | 0.00 | 0.00 | 40 | 1014.6 |
| 20260504010522 | 65 | 217 | 2.0 | 3.0 | 0.00 | 0.00 | 0.00 | 39 | 1015.0 |
| 20260504010018 | 66 | 267 | 0.0 | 4.0 | 0.00 | 0.00 | 0.00 | 38 | 1014.9 |
| 20260504005515 | 66 | 134 | 3.0 | 6.0 | 0.00 | 0.00 | 0.00 | 39 | 1015.1 |
| 20260504005012 | 66 | 156 | 1.0 | 3.0 | 0.00 | 0.00 | 0.00 | 39 | 1014.9 |
| 20260504004510 | 66 | 166 | 4.0 | 4.0 | 0.00 | 0.00 | 0.00 | 38 | 1014.9 |
| 20260504004007 | 66 | 128 | 1.0 | 2.0 | 0.00 | 0.00 | 0.00 | 39 | 1014.9 |
| 20260504003503 | 67 | 81 | 1.0 | 3.0 | 0.00 | 0.00 | 0.00 | 38 | 1014.8 |
| 20260504003000 | 67 | 142 | 3.0 | 3.0 | 0.00 | 0.00 | 0.00 | 37 | 1014.9 |
| 20260504002456 | 67 | 119 | 0.0 | 6.0 | 0.00 | 0.00 | 0.00 | 38 | 1015.3 |
| 20260504001954 | 68 | 102 | 2.0 | 2.0 | 0.00 | 0.00 | 0.00 | 36 | 1015.2 |
| 20260504001451 | 68 | 102 | 1.0 | 4.0 | 0.00 | 0.00 | 0.00 | 36 | 1015.1 |
| 20260504000948 | 68 | 135 | 2.0 | 3.0 | 0.00 | 0.00 | 0.00 | 36 | 1015.0 |
| 20260504000444 | 68 | 129 | 0.0 | 1.0 | 0.00 | 0.00 | 0.00 | 36 | 1015.2 |
| 20260503235942 | 68 | 88 | 0.0 | 3.0 | 0.00 | 0.00 | 0.00 | 35 | 1015.1 |
| 20260503235440 | 69 | 102 | 1.0 | 8.0 | 0.00 | 0.00 | 0.00 | 35 | 1015.1 |
| 20260503234937 | 69 | 142 | 1.0 | 2.0 | 0.00 | 0.00 | 0.00 | 34 | 1015.2 |
| 20260503234434 | 69 | 46 | 2.0 | 7.0 | 0.00 | 0.00 | 0.00 | 35 | 1015.2 |
| 20260503233933 | 70 | 148 | 2.0 | 2.0 | 0.00 | 0.00 | 0.00 | 33 | 1015.1 |
| 20260503233429 | 70 | 156 | 0.0 | 2.0 | 0.00 | 0.00 | 0.00 | 33 | 1015.3 |
| 20260503232925 | 70 | 122 | 2.0 | 3.0 | 0.00 | 0.00 | 0.00 | 33 | 1015.5 |
| 20260503232422 | 70 | 91 | 4.0 | 6.0 | 0.00 | 0.00 | 0.00 | 32 | 1015.4 |
| 20260503231920 | 70 | 44 | 2.0 | 8.0 | 0.00 | 0.00 | 0.00 | 33 | 1015.7 |
| 20260503231417 | 70 | 43 | 1.0 | 4.0 | 0.00 | 0.00 | 0.00 | 34 | 1015.7 |
| 20260503230913 | 70 | 123 | 2.0 | 3.0 | 0.00 | 0.00 | 0.00 | 32 | 1015.7 |
| 20260503230410 | 71 | 75 | 1.0 | 3.0 | 0.00 | 0.00 | 0.00 | 32 | 1015.7 |
| 20260503225908 | 71 | 245 | 3.0 | 7.0 | 0.00 | 0.00 | 0.00 | 33 | 1016.0 |
| 20260503225403 | 71 | 27 | 2.0 | 4.0 | 0.00 | 0.00 | 0.00 | 32 | 1015.8 |
| 20260503224900 | 71 | 158 | 1.0 | 7.0 | 0.00 | 0.00 | 0.00 | 33 | 1016.0 |
| 20260503224357 | 71 | 115 | 3.0 | 6.0 | 0.00 | 0.00 | 0.00 | 32 | 1016.1 |
| 20260503223855 | 71 | 198 | 1.0 | 7.0 | 0.00 | 0.00 | 0.00 | 32 | 1016.1 |
| 20260503223353 | 71 | 305 | 4.0 | 7.0 | 0.00 | 0.00 | 0.00 | 31 | 1016.3 |
| 20260503222848 | 71 | 140 | 2.0 | 6.0 | 0.00 | 0.00 | 0.00 | 33 | 1016.3 |
| 20260503222347 | 71 | 114 | 3.0 | 7.0 | 0.00 | 0.00 | 0.00 | 32 | 1016.3 |
| 20260503221844 | 70 | 169 | 2.0 | 11.0 | 0.00 | 0.00 | 0.00 | 32 | 1016.3 |
| 20260503221343 | 71 | 87 | 0.0 | 7.0 | 0.00 | 0.00 | 0.00 | 34 | 1016.2 |
| 20260503220838 | 70 | 194 | 1.0 | 3.0 | 0.00 | 0.00 | 0.00 | 33 | 1016.6 |
| 20260503220335 | 70 | 113 | 2.0 | 11.0 | 0.00 | 0.00 | 0.00 | 32 | 1016.5 |
| 20260503215832 | 71 | 114 | 2.0 | 6.0 | 0.00 | 0.00 | 0.00 | 32 | 1016.7 |
| 20260503215329 | 70 | 128 | 2.0 | 6.0 | 0.00 | 0.00 | 0.00 | 34 | 1016.8 |
| 20260503214827 | 70 | 246 | 2.0 | 7.0 | 0.00 | 0.00 | 0.00 | 34 | 1016.9 |
| 20260503214324 | 70 | 131 | 2.0 | 9.0 | 0.00 | 0.00 | 0.00 | 34 | 1017.0 |
| 20260503213821 | 70 | 100 | 1.0 | 3.0 | 0.00 | 0.00 | 0.00 | 34 | 1017.0 |
| 20260503213319 | 70 | 218 | 1.0 | 9.0 | 0.00 | 0.00 | 0.00 | 33 | 1017.0 |
| 20260503212816 | 70 | 330 | 3.0 | 7.0 | 0.00 | 0.00 | 0.00 | 32 | 1017.1 |
| 20260503212314 | 69 | 330 | 3.0 | 7.0 | 0.00 | 0.00 | 0.00 | 34 | 1017.2 |
| 20260503211811 | 69 | 120 | 2.0 | 11.0 | 0.00 | 0.00 | 0.00 | 34 | 1017.3 |
| 20260503211308 | 69 | 210 | 2.0 | 4.0 | 0.00 | 0.00 | 0.00 | 33 | 1017.5 |
| 20260503210807 | 70 | 121 | 1.0 | 8.0 | 0.00 | 0.00 | 0.00 | 34 | 1017.6 |
| 20260503210305 | 70 | 108 | 2.0 | 3.0 | 0.00 | 0.00 | 0.00 | 36 | 1017.7 |
| 20260503205800 | 69 | 46 | 3.0 | 6.0 | 0.00 | 0.00 | 0.00 | 34 | 1017.9 |
| 20260503205257 | 69 | 297 | 2.0 | 4.0 | 0.00 | 0.00 | 0.00 | 33 | 1017.8 |
| 20260503204753 | 70 | 300 | 3.0 | 8.0 | 0.00 | 0.00 | 0.00 | 32 | 1017.9 |
| 20260503204251 | 70 | 93 | 2.0 | 7.0 | 0.00 | 0.00 | 0.00 | 35 | 1018.1 |
| 20260503203748 | 69 | 162 | 3.0 | 3.0 | 0.00 | 0.00 | 0.00 | 36 | 1018.3 |
| 20260503203246 | 69 | 321 | 2.0 | 7.0 | 0.00 | 0.00 | 0.00 | 34 | 1018.2 |
| 20260503202742 | 69 | 147 | 1.0 | 6.0 | 0.00 | 0.00 | 0.00 | 38 | 1018.4 |
| 20260503202240 | 69 | 19 | 4.0 | 13.0 | 0.00 | 0.00 | 0.00 | 33 | 1018.8 |
| 20260503201738 | 69 | 117 | 2.0 | 7.0 | 0.00 | 0.00 | 0.00 | 35 | 1018.7 |
| 20260503201235 | 69 | 133 | 5.0 | 7.0 | 0.00 | 0.00 | 0.00 | 33 | 1018.7 |
| 20260503200731 | 69 | 269 | 6.0 | 8.0 | 0.00 | 0.00 | 0.00 | 34 | 1019.0 |
| 20260503200228 | 68 | 259 | 3.0 | 6.0 | 0.00 | 0.00 | 0.00 | 37 | 1019.1 |
| 20260503195725 | 68 | 304 | 4.0 | 4.0 | 0.00 | 0.00 | 0.00 | 36 | 1019.1 |
| 20260503195222 | 68 | 215 | 1.0 | 4.0 | 0.00 | 0.00 | 0.00 | 35 | 1019.4 |
| 20260503194719 | 69 | 61 | 7.0 | 19.0 | 0.00 | 0.00 | 0.00 | 34 | 1019.3 |
| 20260503194215 | 68 | 167 | 2.0 | 3.0 | 0.00 | 0.00 | 0.00 | 37 | 1019.4 |
| 20260503193711 | 68 | 175 | 4.0 | 6.0 | 0.00 | 0.00 | 0.00 | 35 | 1019.8 |
| 20260503193208 | 68 | 113 | 2.0 | 9.0 | 0.00 | 0.00 | 0.00 | 36 | 1019.7 |
| 20260503192703 | 68 | 94 | 2.0 | 8.0 | 0.00 | 0.00 | 0.00 | 36 | 1019.6 |
| 20260503192159 | 68 | 157 | 1.0 | 9.0 | 0.00 | 0.00 | 0.00 | 37 | 1019.8 |
| 20260503191655 | 68 | 281 | 3.0 | 7.0 | 0.00 | 0.00 | 0.00 | 36 | 1020.0 |
| 20260503191153 | 67 | 261 | 4.0 | 7.0 | 0.00 | 0.00 | 0.00 | 36 | 1020.0 |
| 20260503190649 | 68 | 101 | 4.0 | 8.0 | 0.00 | 0.00 | 0.00 | 35 | 1020.0 |
| 20260503190146 | 68 | 105 | 3.0 | 3.0 | 0.00 | 0.00 | 0.00 | 36 | 1020.1 |
| 20260503185643 | 67 | 198 | 2.0 | 10.0 | 0.00 | 0.00 | 0.00 | 37 | 1020.0 |
| 20260503185138 | 67 | 168 | 1.0 | 6.0 | 0.00 | 0.00 | 0.00 | 37 | 1020.4 |
| 20260503184634 | 67 | 212 | 2.0 | 6.0 | 0.00 | 0.00 | 0.00 | 36 | 1020.6 |
| 20260503184130 | 67 | 251 | 2.0 | 10.0 | 0.00 | 0.00 | 0.00 | 38 | 1020.8 |
| 20260503183627 | 67 | 270 | 1.0 | 3.0 | 0.00 | 0.00 | 0.00 | 41 | 1021.0 |
| 20260503183124 | 67 | 45 | 0.0 | 4.0 | 0.00 | 0.00 | 0.00 | 40 | 1021.0 |
| 20260503182622 | 67 | 251 | 2.0 | 10.0 | 0.00 | 0.00 | 0.00 | 39 | 1021.1 |
| 20260503182120 | 67 | 148 | 2.0 | 6.0 | 0.00 | 0.00 | 0.00 | 37 | 1021.0 |
| 20260503181617 | 67 | 41 | 2.0 | 8.0 | 0.00 | 0.00 | 0.00 | 37 | 1021.3 |
| 20260503181114 | 67 | 220 | 4.0 | 4.0 | 0.00 | 0.00 | 0.00 | 37 | 1021.3 |
| 20260503180611 | 67 | 268 | 5.0 | 8.0 | 0.00 | 0.00 | 0.00 | 36 | 1021.5 |
| 20260503180109 | 66 | 139 | 3.0 | 4.0 | 0.00 | 0.00 | 0.00 | 37 | 1021.5 |
| 20260503175605 | 67 | 287 | 5.0 | 10.0 | 0.00 | 0.00 | 0.00 | 37 | 1021.7 |
| 20260503175102 | 65 | 22 | 1.0 | 3.0 | 0.00 | 0.00 | 0.00 | 38 | 1021.9 |
| 20260503174559 | 65 | 23 | 6.0 | 9.0 | 0.00 | 0.00 | 0.00 | 38 | 1021.6 |
| 20260503174056 | 65 | 131 | 4.0 | 4.0 | 0.00 | 0.00 | 0.00 | 37 | 1021.9 |
| 20260503173551 | 65 | 283 | 4.0 | 7.0 | 0.00 | 0.00 | 0.00 | 39 | 1021.9 |
| 20260503173047 | 66 | 137 | 4.0 | 6.0 | 0.00 | 0.00 | 0.00 | 37 | 1022.0 |
| 20260503172545 | 65 | 359 | 2.0 | 4.0 | 0.00 | 0.00 | 0.00 | 40 | 1022.0 |
| 20260503172042 | 65 | 3 | 3.0 | 13.0 | 0.00 | 0.00 | 0.00 | 39 | 1022.1 |
| 20260503171538 | 65 | 133 | 3.0 | 7.0 | 0.00 | 0.00 | 0.00 | 39 | 1022.1 |
| 20260503171036 | 64 | 263 | 3.0 | 6.0 | 0.00 | 0.00 | 0.00 | 37 | 1022.1 |
| 20260503170532 | 65 | 126 | 6.0 | 10.0 | 0.00 | 0.00 | 0.00 | 39 | 1022.3 |
| 20260503150924 | 60 | 138 | 3.0 | 4.0 | 0.00 | 0.00 | 0.00 | 49 | 1023.4 |
| 20260503150421 | 59 | 166 | 3.0 | 7.0 | 0.00 | 0.00 | 0.00 | 48 | 1023.4 |